| time (UTC) | temp C | wind direction | speed KPH | gust KPH | rain 1hr cm | rain 24hr cm | rain mn cm | humidity % | barometer mb |
| 20260506221505 | 18 | 244 | 14.5 | 20.9 | 0.00 | 0.00 | 0.00 | 67 | 1017.7 |
| 20260506220005 | 18 | 267 | 8.0 | 17.7 | 0.00 | 0.00 | 0.00 | 68 | 1017.8 |
| 20260506214507 | 19 | 271 | 6.4 | 24.1 | 0.00 | 0.00 | 0.00 | 67 | 1017.9 |
| 20260506213008 | 18 | 279 | 11.3 | 20.9 | 0.00 | 0.00 | 0.00 | 67 | 1018.0 |
| 20260506211514 | 18 | 269 | 9.7 | 24.1 | 0.00 | 0.00 | 0.00 | 69 | 1018.1 |
| 20260506210007 | 17 | 299 | 12.9 | 24.1 | 0.00 | 0.00 | 0.00 | 71 | 1018.3 |
| 20260506204511 | 17 | 267 | 14.5 | 25.7 | 0.00 | 0.00 | 0.00 | 72 | 1018.4 |
| 20260506203021 | 17 | 268 | 14.5 | 25.7 | 0.00 | 0.00 | 0.00 | 72 | 1018.4 |
| 20260506201529 | 17 | 261 | 14.5 | 27.4 | 0.00 | 0.00 | 0.00 | 72 | 1018.5 |
| 20260506200013 | 17 | 292 | 9.7 | 20.9 | 0.00 | 0.00 | 0.00 | 72 | 1018.6 |
| 20260506194515 | 17 | 279 | 16.1 | 25.7 | 0.00 | 0.00 | 0.00 | 73 | 1018.6 |
| 20260506193013 | 17 | 288 | 14.5 | 22.5 | 0.00 | 0.00 | 0.00 | 73 | 1018.6 |
| 20260506191516 | 17 | 270 | 14.5 | 27.4 | 0.00 | 0.00 | 0.00 | 72 | 1018.7 |
| 20260506190015 | 17 | 294 | 8.0 | 22.5 | 0.00 | 0.00 | 0.00 | 74 | 1018.8 |
| 20260506184516 | 17 | 292 | 6.4 | 25.7 | 0.00 | 0.00 | 0.00 | 75 | 1018.8 |
| 20260506183028 | 16 | 256 | 12.9 | 22.5 | 0.00 | 0.00 | 0.00 | 75 | 1019.1 |
| 20260506181519 | 17 | 292 | 8.0 | 16.1 | 0.00 | 0.00 | 0.00 | 74 | 1019.1 |
| 20260506180019 | 17 | 242 | 4.8 | 12.9 | 0.00 | 0.00 | 0.00 | 73 | 1019.3 |
| 20260506174517 | 17 | 296 | 3.2 | 11.3 | 0.00 | 0.00 | 0.00 | 71 | 1019.3 |
| 20260506173015 | 16 | 307 | 4.8 | 11.3 | 0.00 | 0.00 | 0.00 | 73 | 1019.3 |
| 20260506171526 | 16 | 289 | 6.4 | 14.5 | 0.00 | 0.00 | 0.00 | 73 | 1019.4 |
| 20260506170023 | 15 | 296 | 8.0 | 11.3 | 0.00 | 0.00 | 0.00 | 74 | 1019.3 |
| 20260506164520 | 16 | 241 | 3.2 | 8.0 | 0.00 | 0.00 | 0.00 | 74 | 1019.3 |
| 20260506163019 | 16 | 287 | 3.2 | 11.3 | 0.00 | 0.00 | 0.00 | 74 | 1019.2 |
| 20260506161522 | 16 | 300 | 3.2 | 6.4 | 0.00 | 0.00 | 0.00 | 72 | 1019.3 |
| 20260506160022 | 16 | 261 | 1.6 | 4.8 | 0.00 | 0.00 | 0.00 | 76 | 1019.3 |
| 20260506154511 | 16 | 267 | 1.6 | 4.8 | 0.00 | 0.00 | 0.00 | 76 | 1019.3 |
| 20260506153014 | 15 | 259 | 1.6 | 3.2 | 0.00 | 0.00 | 0.00 | 77 | 1019.5 |
| 20260506151513 | 15 | 279 | 0.0 | 3.2 | 0.00 | 0.00 | 0.00 | 79 | 1019.6 |
| 20260506150013 | 14 | 288 | 0.0 | 3.2 | 0.00 | 0.00 | 0.00 | 80 | 1019.7 |
| 20260506144515 | 13 | 100 | 0.0 | 3.2 | 0.00 | 0.00 | 0.00 | 83 | 1019.7 |
| 20260506143028 | 12 | 100 | 0.0 | 0.0 | 0.00 | 0.00 | 0.00 | 86 | 1019.5 |
| 20260506141520 | 11 | 100 | 0.0 | 3.2 | 0.00 | 0.00 | 0.00 | 88 | 1019.4 |
| 20260506140022 | 10 | 67 | 0.0 | 1.6 | 0.00 | 0.00 | 0.00 | 89 | 1019.2 |
| 20260506134521 | 10 | 67 | 0.0 | 3.2 | 0.00 | 0.00 | 0.00 | 90 | 1019.3 |
| 20260506133020 | 8 | 67 | 0.0 | 3.2 | 0.00 | 0.00 | 0.00 | 89 | 1019.2 |
| 20260506131524 | 8 | 67 | 0.0 | 0.0 | 0.00 | 0.00 | 0.00 | 89 | 1018.9 |
| 20260506130025 | 9 | 67 | 0.0 | 3.2 | 0.00 | 0.00 | 0.00 | 89 | 1018.7 |
| 20260506124525 | 9 | 67 | 0.0 | 3.2 | 0.00 | 0.00 | 0.00 | 89 | 1018.6 |
| 20260506123030 | 9 | 67 | 0.0 | 3.2 | 0.00 | 0.00 | 0.00 | 89 | 1018.5 |
| 20260506121527 | 10 | 67 | 0.0 | 3.2 | 0.00 | 0.00 | 0.00 | 89 | 1018.6 |
| 20260506120005 | 9 | 67 | 1.6 | 3.2 | 0.00 | 0.00 | 0.00 | 90 | 1018.6 |
| 20260506114508 | 9 | 67 | 0.0 | 3.2 | 0.00 | 0.00 | 0.00 | 89 | 1018.7 |
| 20260506113018 | 9 | 67 | 0.0 | 3.2 | 0.00 | 0.00 | 0.00 | 89 | 1018.8 |
| 20260506111508 | 10 | 67 | 0.0 | 1.6 | 0.00 | 0.00 | 0.00 | 89 | 1018.8 |
| 20260506110013 | 10 | 67 | 0.0 | 3.2 | 0.00 | 0.00 | 0.00 | 89 | 1018.7 |
| 20260506104511 | 10 | 67 | 0.0 | 0.0 | 0.00 | 0.00 | 0.00 | 89 | 1018.8 |
| 20260506103014 | 10 | 67 | 0.0 | 0.0 | 0.00 | 0.00 | 0.00 | 89 | 1018.7 |
| 20260506101516 | 10 | 67 | 0.0 | 1.6 | 0.00 | 0.00 | 0.00 | 88 | 1018.7 |
| 20260506100014 | 10 | 67 | 0.0 | 3.2 | 0.00 | 0.00 | 0.00 | 88 | 1018.5 |
| 20260506094519 | 11 | 67 | 0.0 | 3.2 | 0.00 | 0.00 | 0.00 | 88 | 1018.5 |
| 20260506093020 | 11 | 67 | 0.0 | 0.0 | 0.00 | 0.00 | 0.00 | 88 | 1018.6 |
| 20260506091518 | 11 | 67 | 0.0 | 3.2 | 0.00 | 0.00 | 0.00 | 88 | 1018.6 |
| 20260506090031 | 11 | 72 | 0.0 | 3.2 | 0.00 | 0.00 | 0.00 | 88 | 1018.8 |
| 20260506084523 | 11 | 44 | 0.0 | 3.2 | 0.00 | 0.00 | 0.00 | 88 | 1018.9 |
| 20260506083020 | 11 | 44 | 0.0 | 3.2 | 0.00 | 0.00 | 0.00 | 88 | 1018.9 |
| 20260506081522 | 12 | 44 | 0.0 | 3.2 | 0.00 | 0.00 | 0.00 | 87 | 1019.1 |
| 20260506073025 | 12 | 350 | 0.0 | 3.2 | 0.00 | 0.00 | 0.00 | 86 | 1018.9 |
| 20260506071526 | 12 | 51 | 0.0 | 3.2 | 0.00 | 0.00 | 0.00 | 85 | 1018.8 |
| 20260506061543 | 12 | 5 | 0.0 | 3.2 | 0.00 | 0.00 | 0.00 | 83 | 1018.4 |
| 20260506044530 | 13 | 333 | 1.6 | 6.4 | 0.00 | 0.00 | 0.00 | 80 | 1017.8 |
| 20260506043035 | 13 | 313 | 1.6 | 4.8 | 0.00 | 0.00 | 0.00 | 79 | 1017.7 |
| 20260506041525 | 13 | 360 | 1.6 | 3.2 | 0.00 | 0.00 | 0.00 | 78 | 1017.6 |
| 20260506040019 | 13 | 351 | 1.6 | 6.4 | 0.00 | 0.00 | 0.00 | 77 | 1017.3 |
| 20260506034527 | 13 | 325 | 3.2 | 6.4 | 0.00 | 0.00 | 0.00 | 76 | 1017.2 |
| 20260506033025 | 14 | 9 | 1.6 | 9.7 | 0.00 | 0.00 | 0.00 | 75 | 1016.9 |
| 20260506031524 | 14 | 306 | 3.2 | 12.9 | 0.00 | 0.00 | 0.00 | 74 | 1016.5 |
| 20260506030029 | 14 | 352 | 6.4 | 12.9 | 0.00 | 0.00 | 0.00 | 73 | 1016.1 |
| 20260506024538 | 15 | 35 | 11.3 | 14.5 | 0.00 | 0.00 | 0.00 | 72 | 1015.9 |
| 20260506023026 | 15 | 16 | 4.8 | 14.5 | 0.00 | 0.00 | 0.00 | 69 | 1015.8 |
| 20260506021526 | 16 | 346 | 4.8 | 12.9 | 0.00 | 0.00 | 0.00 | 66 | 1015.7 |
| 20260506020006 | 16 | 324 | 6.4 | 16.1 | 0.00 | 0.00 | 0.00 | 64 | 1015.5 |
| 20260506014508 | 16 | 325 | 4.8 | 14.5 | 0.00 | 0.00 | 0.00 | 70 | 1015.5 |
| 20260506013012 | 16 | 276 | 6.4 | 16.1 | 0.00 | 0.00 | 0.00 | 69 | 1015.4 |
| 20260506011510 | 16 | 310 | 8.0 | 20.9 | 0.00 | 0.00 | 0.00 | 69 | 1015.4 |
| 20260506010012 | 16 | 265 | 9.7 | 20.9 | 0.00 | 0.00 | 0.00 | 71 | 1015.4 |
| 20260506004514 | 16 | 292 | 12.9 | 22.5 | 0.00 | 0.00 | 0.00 | 73 | 1015.4 |
| 20260506003016 | 16 | 252 | 8.0 | 22.5 | 0.00 | 0.00 | 0.00 | 72 | 1015.3 |
| 20260506001515 | 16 | 277 | 11.3 | 24.1 | 0.00 | 0.00 | 0.00 | 72 | 1015.2 |
| 20260506000019 | 16 | 227 | 11.3 | 22.5 | 0.00 | 0.00 | 0.00 | 73 | 1015.1 |
| 20260505234520 | 16 | 281 | 11.3 | 24.1 | 0.00 | 0.00 | 0.00 | 72 | 1015.2 |
| 20260505233022 | 17 | 306 | 11.3 | 25.7 | 0.00 | 0.00 | 0.00 | 71 | 1015.2 |
| 20260505231523 | 16 | 252 | 14.5 | 29.0 | 0.00 | 0.00 | 0.00 | 72 | 1015.1 |
| 20260505230020 | 16 | 287 | 16.1 | 24.1 | 0.00 | 0.00 | 0.00 | 71 | 1015.3 |
| 20260505224527 | 16 | 277 | 14.5 | 27.4 | 0.00 | 0.00 | 0.00 | 70 | 1015.3 |
| 20260505223027 | 16 | 302 | 9.7 | 25.7 | 0.00 | 0.00 | 0.00 | 71 | 1015.5 |